[[{"header":{"parameterUnit":"m.s-1","parameterCategory":1,"la1":30.2991,"la2":30.254,"lo1":-89.0895,"lo2":-89.0444,"dy":0.0017,"dx":0.0017,"nx":28,"ny":28,"refTime":"2023-07-30T21:00:00:Z","depth":0,"parameterNumber":2,"parameterNumberName":"U-component_of_WINDS"},"data":[0,0,0,0,0,0,0,0,0,0,0,0,0,0,0,0,0,0,0,0,0,0,0,0,0,0,0,0,0,0,0,0,0,0,0,0,0,0,0,0,0,0,0,0,0,0,0,0,0,0,0,0,0,0,0,0,0,0,1.4707,1.4707,0,1.4741,1.4742,1.4742,1.4718,1.4717,1.4716,1.4715,1.4748,1.475,1.4752,0,0,0,0,0,0,0,0,0,0,0,0,0,1.4619,1.462,1.4707,1.4707,1.4707,1.4741,1.4742,1.4742,1.4718,1.4717,1.4716,1.4714,1.4748,1.475,1.4752,0,0,0,0,0,0,0,0,0,0,0,0,0,1.4655,1.4621,1.4706,1.47,1.4699,1.4741,1.4742,1.4742,1.4718,1.4717,1.4715,1.4714,1.4747,1.475,1.4753,1.4802,0,0,1.4761,1.4762,0,0,0,0,0,0,0,0,1.4653,1.4659,1.47,1.47,1.47,1.4724,1.4723,1.4762,1.4719,1.4711,1.4715,1.4713,1.4741,1.4744,1.4754,1.4804,1.4805,1.4761,1.4763,1.4764,1.4765,0,0,0,0,0,0,0,1.4651,1.4657,1.472,1.4701,1.4701,1.4694,1.4698,1.473,1.4735,1.4712,1.471,1.4715,1.4741,1.4752,1.4755,1.4806,1.4761,1.4764,1.4766,1.4767,1.4899,1.4901,0,0,0,0,0,0,1.4649,1.4655,1.4719,1.4721,1.4672,1.4697,1.4701,1.4718,1.4734,1.4735,1.4716,1.4713,1.4748,1.4752,1.4756,1.4816,1.4764,1.4767,1.4769,1.4897,1.4899,1.4901,0,0,0,0,0,0,1.4647,1.4655,1.4718,1.4688,1.4695,1.4701,1.4719,1.4719,1.473,1.4738,1.4738,1.4726,1.4747,1.4752,1.4791,1.4817,1.4768,1.4771,1.4895,1.4898,1.49,1.4936,0,0,0,0,0,0,1.4645,1.4654,1.4674,1.4688,1.4697,1.4753,1.4721,1.4721,1.4735,1.4732,1.4747,1.4748,1.4746,1.4787,1.4794,1.482,1.4773,1.4893,1.4896,1.4899,1.4932,1.4939,1.4946,0,0,0,0,0,1.4642,1.4681,1.4675,1.4682,1.4721,1.4754,1.4759,1.4756,1.4737,1.4757,1.4762,1.4748,1.4813,1.4792,1.4799,1.4826,1.4891,1.4895,1.4899,1.4929,1.4938,1.4945,0,0,0,0,0,0,1.4668,1.4683,1.4676,1.4722,1.4737,1.475,1.4774,1.4765,1.4785,1.4781,1.4776,1.478,1.4821,1.4827,1.4803,1.4876,1.4849,1.4855,1.487,1.4878,1.4884,1.4881,1.4775,0,0,0,0,0,1.468,1.4706,1.4717,1.4757,1.4765,1.4768,1.4783,1.4779,1.4794,1.4801,1.4808,1.4823,1.4847,1.4863,1.4885,1.4934,1.4937,1.4956,1.4963,1.4968,1.4973,1.4999,1.5008,1.4915,1.4915,1.4914,0,0,1.4703,1.4714,1.4731,1.4762,1.4774,1.4801,1.4774,1.4803,1.4823,1.4805,1.4842,1.4849,1.4865,1.491,1.493,1.4916,1.4999,1.4973,1.4977,1.4979,1.5004,1.5013,1.5021,1.4917,1.4917,1.4916,0,0,1.4759,1.4771,1.4805,1.4818,1.4836,1.4838,1.4847,1.4862,1.4866,1.4904,1.4891,1.4914,1.4956,1.4968,1.498,1.5043,1.5031,1.5051,1.5084,1.511,1.5118,1.5124,1.5147,1.5155,1.5055,1.5056,1.5056,0,1.4785,1.4826,1.4823,1.4855,1.4869,1.4855,1.489,1.4902,1.4926,1.4936,1.4922,1.4974,1.4984,1.5031,1.5047,1.5057,1.5066,1.5048,1.5117,1.5123,1.5129,1.5151,1.5159,1.5058,1.5058,1.5057,1.5057,0,1.4858,1.4886,1.4912,1.4937,1.4954,1.4987,1.4989,1.5007,1.5003,1.5007,1.5046,1.5058,1.5083,1.5094,1.5089,1.5141,1.5133,1.5118,1.5091,1.5141,1.5161,1.5169,1.5061,1.506,1.506,1.5059,0,0,1.493,1.4955,1.4964,1.4976,1.4996,1.5018,1.505,1.5076,1.5091,1.5109,1.5136,1.5172,1.5159,1.5172,1.5169,1.5192,1.5242,1.5175,1.5175,1.5187,1.53,1.5311,1.532,1.5235,1.5237,1.5238,1.5299,0,1.4987,1.5044,1.5044,1.5096,1.5123,1.5111,1.5139,1.5155,1.516,1.5183,1.5188,1.5214,1.5195,1.5203,1.5225,1.5231,1.5265,1.5227,1.5259,1.5261,1.5255,1.5331,1.5342,1.5399,1.5307,1.5308,1.5309,0,1.5061,1.5082,1.5138,1.5156,1.5167,1.5192,1.5216,1.5239,1.5256,1.5258,1.5275,1.5268,1.5301,1.5275,1.532,1.5294,1.5308,1.5313,1.5315,1.5317,1.5287,1.5335,1.5417,1.5425,1.5321,1.532,1.5319,0,1.5107,1.5151,1.519,1.52,1.5222,1.524,1.525,1.5266,1.5281,1.5302,1.5313,1.5337,1.535,1.5369,1.537,1.535,1.5416,1.5389,1.5418,1.5418,1.5431,1.543,1.5516,1.5441,1.5441,1.5441,1.5441,0,1.5171,1.5205,1.5211,1.5235,1.5274,1.5273,1.5311,1.5319,1.5334,1.5359,1.5351,1.5375,1.5374,1.5399,1.5399,1.5437,1.5443,1.5445,1.5445,1.5446,1.5445,1.5454,1.545,1.5443,1.5443,1.5442,1.5442,0,1.5229,1.5234,1.5276,1.5294,1.5299,1.5327,1.5342,1.5365,1.537,1.5402,1.5409,1.5417,1.5446,1.5449,1.5481,1.5482,1.5527,1.5523,1.5521,1.552,1.5549,1.5547,1.5643,1.5656,1.5573,1.5574,1.5575,0,1.5268,1.5295,1.5316,1.5333,1.5344,1.5371,1.5388,1.5389,1.5406,1.5429,1.545,1.5477,1.5499,1.5545,1.5554,1.5579,1.5575,1.5607,1.5578,1.5579,1.5575,1.5573,1.5576,1.5612,1.5613,1.5614,1.5614,0,1.5338,1.534,1.5365,1.5391,1.5411,1.5432,1.5451,1.5465,1.5468,1.5489,1.5518,1.5536,1.557,1.5598,1.5623,1.5632,1.5624,1.5624,1.5632,1.5632,1.563,1.5631,1.5536,1.5621,1.562,1.562,1.5619,1.5619,1.5388,1.5411,1.543,1.5458,1.5473,1.5492,1.5515,1.5523,1.5548,1.5577,1.5576,1.5609,1.5627,1.566,1.5672,1.5697,1.5686,1.5698,1.5701,1.5703,1.5706,1.5627,1.5702,1.5701,1.5701,1.5701,1.5701,0,1.5457,1.5469,1.5495,1.5523,1.5545,1.5537,1.5558,1.5577,1.5606,1.5624,1.5647,1.5681,1.5709,1.572,1.5747,1.5765,1.5762,1.5772,1.577,1.5773,1.5714,1.5705,1.5774,1.5774,1.5774,1.5774,1.5774,1.5774,1.5495,1.5534,1.5539,1.5586,1.5598,1.563,1.5643,1.5661,1.5675,1.5714,1.5738,1.5745,1.5761,1.5789,1.5814,1.5816,1.5826,1.5838,1.5839,1.5784,1.5777,1.577,1.576,1.5841,1.5841,1.5895,1.5896,1.5896]},{"header":{"parameterUnit":"m.s-1","parameterCategory":1,"la1":30.2991,"la2":30.254,"lo1":-89.0895,"lo2":-89.0444,"dy":0.0017,"dx":0.0017,"nx":28,"ny":28,"refTime":"2023-07-30T21:00:00:Z","depth":0,"parameterNumber":3,"parameterNumberName":"V-component_of_WINDS"},"data":[0,0,0,0,0,0,0,0,0,0,0,0,0,0,0,0,0,0,0,0,0,0,0,0,0,0,0,0,0,0,0,0,0,0,0,0,0,0,0,0,0,0,0,0,0,0,0,0,0,0,0,0,0,0,0,0,0,0,-2.6642,-2.6643,0,-2.6757,-2.6759,-2.676,-2.6768,-2.6767,-2.6765,-2.6764,-2.6881,-2.6885,-2.6889,0,0,0,0,0,0,0,0,0,0,0,0,0,-2.6427,-2.6431,-2.6642,-2.6643,-2.6645,-2.6757,-2.6759,-2.676,-2.6768,-2.6767,-2.6765,-2.6764,-2.6879,-2.6884,-2.6889,0,0,0,0,0,0,0,0,0,0,0,0,0,-2.6529,-2.6432,-2.6641,-2.6662,-2.6665,-2.6757,-2.6759,-2.6761,-2.6769,-2.6767,-2.6765,-2.6763,-2.6878,-2.6884,-2.689,-2.6968,0,0,-2.691,-2.6913,0,0,0,0,0,0,0,0,-2.6523,-2.6537,-2.6658,-2.6661,-2.6664,-2.6746,-2.6726,-2.683,-2.6769,-2.6729,-2.6764,-2.6762,-2.6837,-2.6847,-2.6873,-2.6974,-2.6979,-2.691,-2.6914,-2.6917,-2.6919,0,0,0,0,0,0,0,-2.6516,-2.6532,-2.6687,-2.6659,-2.6664,-2.6665,-2.6678,-2.6745,-2.6793,-2.6733,-2.6733,-2.6747,-2.6839,-2.6867,-2.6876,-2.698,-2.691,-2.6916,-2.692,-2.6922,-2.7152,-2.7154,0,0,0,0,0,0,-2.6505,-2.6526,-2.6684,-2.6691,-2.6588,-2.6671,-2.6685,-2.6722,-2.6792,-2.6801,-2.6749,-2.6747,-2.6857,-2.6868,-2.688,-2.6976,-2.6917,-2.6923,-2.6927,-2.715,-2.7153,-2.7155,0,0,0,0,0,0,-2.6501,-2.6519,-2.6679,-2.6609,-2.6629,-2.6677,-2.6718,-2.6725,-2.6753,-2.6804,-2.6812,-2.6768,-2.6855,-2.6871,-2.6947,-2.698,-2.6926,-2.6932,-2.7147,-2.7151,-2.7154,-2.717,0,0,0,0,0,0,-2.6494,-2.6517,-2.6548,-2.6609,-2.6633,-2.6744,-2.672,-2.6729,-2.6764,-2.6763,-2.6825,-2.6833,-2.6855,-2.6937,-2.6953,-2.6988,-2.6937,-2.7145,-2.7149,-2.7153,-2.7166,-2.7173,-2.7179,0,0,0,0,0,-2.6487,-2.6547,-2.6549,-2.6568,-2.6672,-2.6746,-2.676,-2.6784,-2.6767,-2.6798,-2.6831,-2.6831,-2.6974,-2.6945,-2.6963,-2.7001,-2.7143,-2.7148,-2.7153,-2.7164,-2.7172,-2.7179,0,0,0,0,0,0,-2.6487,-2.6555,-2.6559,-2.6641,-2.6688,-2.6747,-2.6787,-2.6792,-2.6844,-2.6841,-2.6869,-2.6883,-2.6958,-2.6987,-2.6953,-2.708,-2.7056,-2.7065,-2.7059,-2.7067,-2.7073,-2.7064,-2.6942,0,0,0,0,0,-2.6497,-2.6552,-2.6609,-2.6676,-2.6699,-2.6739,-2.6772,-2.6788,-2.6837,-2.6856,-2.6895,-2.6942,-2.6998,-2.7034,-2.7088,-2.7171,-2.7185,-2.7206,-2.7212,-2.7217,-2.7224,-2.7271,-2.7281,-2.7172,-2.7172,-2.7172,0,0,-2.6518,-2.6562,-2.6595,-2.6677,-2.6715,-2.6771,-2.6756,-2.6815,-2.6857,-2.6865,-2.694,-2.697,-2.7025,-2.7104,-2.7141,-2.7131,-2.7258,-2.7224,-2.7227,-2.7232,-2.7277,-2.7287,-2.7297,-2.7175,-2.7175,-2.7174,0,0,-2.6584,-2.6623,-2.6684,-2.6722,-2.6781,-2.6807,-2.6822,-2.6881,-2.6901,-2.6977,-2.6984,-2.7034,-2.7129,-2.7169,-2.7201,-2.7283,-2.7286,-2.73,-2.7333,-2.7378,-2.7387,-2.7394,-2.7424,-2.7434,-2.7307,-2.7307,-2.7307,0,-2.6602,-2.6688,-2.6714,-2.6774,-2.681,-2.6821,-2.6883,-2.6919,-2.6991,-2.7016,-2.7003,-2.7124,-2.7161,-2.7251,-2.7271,-2.7297,-2.7314,-2.7293,-2.7383,-2.7391,-2.7399,-2.7428,-2.7439,-2.7309,-2.7309,-2.7308,-2.7308,0,-2.6707,-2.6766,-2.6808,-2.6879,-2.692,-2.698,-2.7015,-2.7054,-2.7065,-2.7093,-2.717,-2.7216,-2.728,-2.7302,-2.7314,-2.7393,-2.7385,-2.7378,-2.7354,-2.741,-2.7438,-2.7449,-2.7311,-2.731,-2.731,-2.7309,0,0,-2.6776,-2.6862,-2.6876,-2.6909,-2.6975,-2.7021,-2.7082,-2.7146,-2.7178,-2.7228,-2.728,-2.7361,-2.7355,-2.7392,-2.7408,-2.7447,-2.751,-2.7435,-2.7437,-2.7448,-2.7601,-2.7606,-2.7618,-2.7513,-2.7515,-2.7517,-2.7597,0,-2.6849,-2.6959,-2.6985,-2.7079,-2.7134,-2.7146,-2.7199,-2.7245,-2.7273,-2.7324,-2.7354,-2.7411,-2.7399,-2.7421,-2.7461,-2.7494,-2.7541,-2.7489,-2.7561,-2.7563,-2.7546,-2.7633,-2.7638,-2.7711,-2.7607,-2.7609,-2.7611,0,-2.6949,-2.7003,-2.7102,-2.7162,-2.7186,-2.7234,-2.7294,-2.7343,-2.7395,-2.7413,-2.7454,-2.7467,-2.7531,-2.7505,-2.7594,-2.7557,-2.7589,-2.761,-2.7613,-2.762,-2.759,-2.7642,-2.7735,-2.7746,-2.7628,-2.7626,-2.7625,0,-2.699,-2.7087,-2.7159,-2.7187,-2.7258,-2.7291,-2.7322,-2.7373,-2.741,-2.7462,-2.7487,-2.7546,-2.7578,-2.7624,-2.7653,-2.7631,-2.7739,-2.7715,-2.7755,-2.7755,-2.7777,-2.7775,-2.7876,-2.7797,-2.7797,-2.7797,-2.7797,0,-2.7069,-2.7129,-2.7178,-2.7222,-2.7291,-2.732,-2.7387,-2.7418,-2.7463,-2.7514,-2.7528,-2.7575,-2.761,-2.7662,-2.7684,-2.7755,-2.7769,-2.7785,-2.779,-2.7784,-2.7782,-2.7804,-2.7799,-2.78,-2.7799,-2.7799,-2.7798,0,-2.7125,-2.716,-2.724,-2.7301,-2.7318,-2.7366,-2.7418,-2.7462,-2.749,-2.7554,-2.7571,-2.7616,-2.7678,-2.7711,-2.7788,-2.7803,-2.7882,-2.7885,-2.7864,-2.7867,-2.7905,-2.7901,-2.8024,-2.8041,-2.7951,-2.7952,-2.7952,0,-2.7173,-2.722,-2.7287,-2.7322,-2.7354,-2.7411,-2.7449,-2.748,-2.7519,-2.7583,-2.7619,-2.7682,-2.7734,-2.7832,-2.7871,-2.7931,-2.7935,-2.7974,-2.7944,-2.7936,-2.7935,-2.7932,-2.7937,-2.7979,-2.798,-2.798,-2.7981,0,-2.7254,-2.727,-2.7324,-2.7386,-2.7431,-2.748,-2.7529,-2.7557,-2.7596,-2.7639,-2.7703,-2.7743,-2.7823,-2.7886,-2.7948,-2.798,-2.7987,-2.799,-2.8003,-2.7996,-2.7983,-2.7991,-2.7879,-2.7987,-2.7986,-2.7986,-2.7986,-2.7985,-2.7308,-2.7351,-2.7405,-2.7465,-2.7505,-2.7551,-2.7595,-2.763,-2.7684,-2.7752,-2.7767,-2.7835,-2.7887,-2.7972,-2.8006,-2.8059,-2.8051,-2.8069,-2.8074,-2.8078,-2.8079,-2.7975,-2.8071,-2.8071,-2.8071,-2.807,-2.807,0,-2.739,-2.7426,-2.7481,-2.755,-2.7598,-2.7601,-2.7656,-2.7695,-2.7755,-2.7803,-2.7855,-2.7929,-2.799,-2.8034,-2.8097,-2.8131,-2.8136,-2.8146,-2.8143,-2.8151,-2.8083,-2.8066,-2.8141,-2.8141,-2.8141,-2.8141,-2.8141,-2.8141,-2.7438,-2.7511,-2.7533,-2.7626,-2.7661,-2.7728,-2.7759,-2.7801,-2.784,-2.7922,-2.7974,-2.8003,-2.805,-2.8116,-2.8172,-2.8183,-2.8206,-2.8216,-2.8227,-2.8163,-2.8155,-2.8148,-2.8132,-2.822,-2.822,-2.8291,-2.8292,-2.8292]}]]